Time,TemperatureF,DewpointF,PressureIn,WindDirection,WindDirectionDegrees,WindSpeedMPH,WindSpeedGustMPH,Humidity,HourlyPrecipIn,Conditions,Clouds,dailyrainin,SolarRadiationWatts/m^2,SoftwareType,DateUTC
2013-03-21 00:01:00,23.8,14.4,29.70,ENE,75,0.0,1.0,67,0.00,,,0.02,0,Wunderground v.1.15,2013-03-21 04:01:00,
2013-03-21 00:02:00,23.8,14.4,29.70,ENE,75,0.0,1.0,67,0.00,,,0.00,0,Wunderground v.1.15,2013-03-21 04:02:00,
2013-03-21 00:03:00,23.8,14.4,29.70,ENE,75,0.0,1.0,67,0.00,,,0.00,0,Wunderground v.1.15,2013-03-21 04:03:00,
2013-03-21 00:07:00,23.8,14.4,29.70,ENE,75,0.0,1.0,67,0.00,,,0.00,0,Wunderground v.1.15,2013-03-21 04:07:00,
2013-03-21 00:12:00,23.8,14.4,29.70,ENE,75,0.0,0.0,67,0.00,,,0.00,0,Wunderground v.1.15,2013-03-21 04:12:00,
2013-03-21 00:17:00,23.9,14.5,29.70,ENE,75,0.0,0.0,67,0.00,,,0.00,0,Wunderground v.1.15,2013-03-21 04:17:00,
2013-03-21 00:23:00,23.9,14.5,29.70,ENE,75,0.0,0.0,67,0.00,,,0.00,0,Wunderground v.1.15,2013-03-21 04:23:00,
2013-03-21 00:29:00,23.9,14.5,29.70,ENE,75,0.0,0.0,67,0.00,,,0.00,0,Wunderground v.1.15,2013-03-21 04:29:00,
2013-03-21 00:34:00,23.9,14.5,29.70,ENE,75,0.0,0.0,67,0.00,,,0.00,0,Wunderground v.1.15,2013-03-21 04:34:00,
2013-03-21 00:39:00,23.9,14.5,29.70,ENE,75,0.0,0.0,67,0.00,,,0.00,0,Wunderground v.1.15,2013-03-21 04:39:00,
2013-03-21 00:46:00,23.8,14.4,29.70,ENE,75,0.0,0.0,67,0.00,,,0.00,0,Wunderground v.1.15,2013-03-21 04:46:00,
2013-03-21 00:51:00,23.6,14.6,29.70,ENE,75,0.0,0.0,68,0.00,,,0.00,0,Wunderground v.1.15,2013-03-21 04:51:00,
2013-03-21 00:57:00,23.5,14.5,29.70,ENE,75,0.0,0.0,68,0.00,,,0.00,0,Wunderground v.1.15,2013-03-21 04:57:00,
2013-03-21 01:02:00,23.3,14.6,29.71,ENE,75,0.0,0.0,69,0.00,,,0.00,0,Wunderground v.1.15,2013-03-21 05:02:00,
2013-03-21 01:07:00,23.2,14.5,29.71,ENE,75,0.0,0.0,69,0.00,,,0.00,0,Wunderground v.1.15,2013-03-21 05:07:00,
2013-03-21 01:12:00,23.0,14.3,29.71,ENE,75,0.0,0.0,69,0.00,,,0.00,0,Wunderground v.1.15,2013-03-21 05:12:00,
2013-03-21 01:18:00,23.0,14.3,29.71,ENE,75,0.0,0.0,69,0.00,,,0.00,0,Wunderground v.1.15,2013-03-21 05:18:00,
2013-03-21 01:24:00,23.0,14.7,29.71,ENE,75,0.0,0.0,70,0.00,,,0.00,0,Wunderground v.1.15,2013-03-21 05:24:00,
2013-03-21 01:31:00,22.9,14.2,29.71,ENE,75,0.0,0.0,69,0.00,,,0.00,0,Wunderground v.1.15,2013-03-21 05:31:00,
2013-03-21 01:36:00,22.9,14.6,29.71,ENE,75,0.0,0.0,70,0.00,,,0.00,0,Wunderground v.1.15,2013-03-21 05:36:00,
2013-03-21 01:42:00,22.9,14.6,29.71,ENE,75,0.0,0.0,70,0.00,,,0.00,0,Wunderground v.1.15,2013-03-21 05:42:00,
2013-03-21 01:48:00,22.9,14.6,29.71,ENE,75,0.0,0.0,70,0.00,,,0.00,0,Wunderground v.1.15,2013-03-21 05:48:00,
2013-03-21 01:54:00,23.0,14.7,29.71,East,94,0.0,2.0,70,0.00,,,0.00,0,Wunderground v.1.15,2013-03-21 05:54:00,
2013-03-21 01:59:00,23.0,14.3,29.71,East,94,1.0,2.0,69,0.00,,,0.00,0,Wunderground v.1.15,2013-03-21 05:59:00,
2013-03-21 02:06:00,23.0,14.3,29.71,East,94,0.0,2.0,69,0.00,,,0.00,0,Wunderground v.1.15,2013-03-21 06:06:00,
2013-03-21 02:11:00,23.2,14.9,29.71,East,94,0.0,0.0,70,0.00,,,0.00,0,Wunderground v.1.15,2013-03-21 06:11:00,
2013-03-21 02:17:00,23.2,14.5,29.71,East,94,0.0,1.0,69,0.00,,,0.00,0,Wunderground v.1.15,2013-03-21 06:17:00,
2013-03-21 02:22:00,23.2,14.5,29.71,East,94,0.0,0.0,69,0.00,,,0.00,0,Wunderground v.1.15,2013-03-21 06:22:00,
2013-03-21 02:27:00,23.0,14.3,29.71,East,94,0.0,0.0,69,0.00,,,0.00,0,Wunderground v.1.15,2013-03-21 06:27:00,
2013-03-21 02:32:00,23.0,14.7,29.71,East,94,0.0,0.0,70,0.00,,,0.00,0,Wunderground v.1.15,2013-03-21 06:32:00,
2013-03-21 02:38:00,22.9,14.6,29.71,East,94,0.0,0.0,70,0.00,,,0.00,0,Wunderground v.1.15,2013-03-21 06:38:00,
2013-03-21 02:43:00,22.9,14.6,29.71,East,94,0.0,0.0,70,0.00,,,0.00,0,Wunderground v.1.15,2013-03-21 06:43:00,
2013-03-21 02:48:00,22.9,14.6,29.71,East,94,0.0,1.0,70,0.00,,,0.00,0,Wunderground v.1.15,2013-03-21 06:48:00,
2013-03-21 02:54:00,23.0,15.0,29.71,East,94,0.0,0.0,71,0.00,,,0.00,0,Wunderground v.1.15,2013-03-21 06:54:00,
2013-03-21 03:01:00,23.2,15.2,29.70,East,94,0.0,0.0,71,0.00,,,0.00,0,Wunderground v.1.15,2013-03-21 07:01:00,
2013-03-21 03:06:00,23.2,14.9,29.70,East,94,0.0,0.0,70,0.00,,,0.00,0,Wunderground v.1.15,2013-03-21 07:06:00,
2013-03-21 03:12:00,23.2,15.2,29.70,East,94,0.0,0.0,71,0.00,,,0.00,0,Wunderground v.1.15,2013-03-21 07:12:00,
2013-03-21 03:17:00,23.2,14.9,29.70,East,94,0.0,1.0,70,0.00,,,0.00,0,Wunderground v.1.15,2013-03-21 07:17:00,
2013-03-21 03:22:00,23.2,14.9,29.70,East,94,0.0,2.0,70,0.00,,,0.00,0,Wunderground v.1.15,2013-03-21 07:22:00,
2013-03-21 03:28:00,23.0,14.7,29.70,East,94,0.0,2.0,70,0.00,,,0.00,0,Wunderground v.1.15,2013-03-21 07:28:00,
2013-03-21 03:34:00,23.0,15.0,29.69,East,94,0.0,0.0,71,0.00,,,0.00,0,Wunderground v.1.15,2013-03-21 07:34:00,
2013-03-21 03:41:00,22.9,14.9,29.69,East,94,0.0,0.0,71,0.00,,,0.00,0,Wunderground v.1.15,2013-03-21 07:41:00,
2013-03-21 03:46:00,22.7,15.0,29.69,East,94,0.0,0.0,72,0.00,,,0.00,0,Wunderground v.1.15,2013-03-21 07:46:00,
2013-03-21 03:51:00,22.5,14.8,29.69,East,94,0.0,1.0,72,0.00,,,0.00,0,Wunderground v.1.15,2013-03-21 07:51:00,
2013-03-21 03:56:00,22.4,15.1,29.69,ENE,68,0.0,1.0,73,0.00,,,0.00,0,Wunderground v.1.15,2013-03-21 07:56:00,
2013-03-21 04:02:00,22.4,15.1,29.69,ENE,77,1.0,1.0,73,0.00,,,0.00,0,Wunderground v.1.15,2013-03-21 08:02:00,
2013-03-21 04:08:00,22.5,15.1,29.69,ENE,77,1.0,2.0,73,0.00,,,0.00,0,Wunderground v.1.15,2013-03-21 08:08:00,
2013-03-21 04:14:00,22.5,15.5,29.69,ESE,110,1.0,1.0,74,0.00,,,0.00,0,Wunderground v.1.15,2013-03-21 08:14:00,
2013-03-21 04:19:00,22.5,15.5,29.69,ESE,110,1.0,2.0,74,0.00,,,0.00,0,Wunderground v.1.15,2013-03-21 08:19:00,
2013-03-21 04:24:00,22.5,15.5,29.69,ESE,110,0.0,1.0,74,0.00,,,0.00,0,Wunderground v.1.15,2013-03-21 08:24:00,
2013-03-21 04:29:00,22.4,15.4,29.69,ESE,110,0.0,1.0,74,0.00,,,0.00,0,Wunderground v.1.15,2013-03-21 08:29:00,
2013-03-21 04:36:00,22.4,15.4,29.69,ESE,110,0.0,2.0,74,0.00,,,0.00,0,Wunderground v.1.15,2013-03-21 08:36:00,
2013-03-21 04:41:00,22.4,15.4,29.69,ESE,110,0.0,0.0,74,0.00,,,0.00,0,Wunderground v.1.15,2013-03-21 08:41:00,
2013-03-21 04:46:00,22.2,15.2,29.68,ESE,110,0.0,0.0,74,0.00,,,0.00,0,Wunderground v.1.15,2013-03-21 08:46:00,
2013-03-21 04:51:00,22.1,15.1,29.68,ESE,110,0.0,0.0,74,0.00,,,0.00,0,Wunderground v.1.15,2013-03-21 08:51:00,
2013-03-21 04:57:00,21.9,15.2,29.68,ESE,110,0.0,0.0,75,0.00,,,0.00,0,Wunderground v.1.15,2013-03-21 08:57:00,
2013-03-21 05:03:00,21.8,15.1,29.68,ESE,110,0.0,0.0,75,0.00,,,0.00,0,Wunderground v.1.15,2013-03-21 09:03:00,
2013-03-21 05:09:00,21.6,14.9,29.68,ESE,110,0.0,0.0,75,0.00,,,0.00,0,Wunderground v.1.15,2013-03-21 09:09:00,
2013-03-21 05:16:00,21.6,14.9,29.68,ESE,110,0.0,0.0,75,0.00,,,0.00,0,Wunderground v.1.15,2013-03-21 09:16:00,
2013-03-21 05:21:00,21.4,15.0,29.68,ESE,110,0.0,1.0,76,0.00,,,0.00,0,Wunderground v.1.15,2013-03-21 09:21:00,
2013-03-21 05:26:00,21.6,14.9,29.68,ESE,110,0.0,1.0,75,0.00,,,0.00,0,Wunderground v.1.15,2013-03-21 09:26:00,
2013-03-21 05:32:00,21.4,14.7,29.69,ESE,110,0.0,0.0,75,0.00,,,0.00,0,Wunderground v.1.15,2013-03-21 09:32:00,
2013-03-21 05:37:00,21.4,14.7,29.69,ESE,110,0.0,0.0,75,0.00,,,0.00,0,Wunderground v.1.15,2013-03-21 09:37:00,
2013-03-21 05:43:00,21.3,14.6,29.69,ESE,110,0.0,0.0,75,0.00,,,0.00,0,Wunderground v.1.15,2013-03-21 09:43:00,
2013-03-21 05:49:00,21.3,14.6,29.69,ESE,110,0.0,0.0,75,0.00,,,0.00,0,Wunderground v.1.15,2013-03-21 09:49:00,
2013-03-21 05:56:00,21.1,14.4,29.69,ESE,110,0.0,0.0,75,0.00,,,0.00,0,Wunderground v.1.15,2013-03-21 09:56:00,
2013-03-21 06:01:00,21.0,14.3,29.69,ESE,110,0.0,0.0,75,0.00,,,0.00,0,Wunderground v.1.15,2013-03-21 10:01:00,
2013-03-21 06:07:00,20.8,14.1,29.69,ESE,110,0.0,0.0,75,0.00,,,0.00,0,Wunderground v.1.15,2013-03-21 10:07:00,
2013-03-21 06:12:00,20.8,14.1,29.69,ESE,110,0.0,0.0,75,0.00,,,0.00,0,Wunderground v.1.15,2013-03-21 10:12:00,
2013-03-21 06:18:00,20.8,14.1,29.69,ESE,110,0.0,0.0,75,0.00,,,0.00,0,Wunderground v.1.15,2013-03-21 10:18:00,
2013-03-21 06:23:00,20.8,14.4,29.69,ESE,110,0.0,0.0,76,0.00,,,0.00,0,Wunderground v.1.15,2013-03-21 10:23:00,
2013-03-21 06:29:00,21.0,14.6,29.69,South,190,0.0,1.0,76,0.00,,,0.00,0,Wunderground v.1.15,2013-03-21 10:29:00,
2013-03-21 06:36:00,21.1,14.4,29.69,SSW,192,0.0,1.0,75,0.00,,,0.00,0,Wunderground v.1.15,2013-03-21 10:36:00,
2013-03-21 06:41:00,21.3,14.6,29.69,South,191,0.0,0.0,75,0.00,,,0.00,0,Wunderground v.1.15,2013-03-21 10:41:00,
2013-03-21 06:46:00,21.3,14.3,29.70,SE,125,0.0,0.0,74,0.00,,,0.00,0,Wunderground v.1.15,2013-03-21 10:46:00,
2013-03-21 06:52:00,21.3,14.3,29.70,SE,128,0.0,0.0,74,0.00,,,0.00,0,Wunderground v.1.15,2013-03-21 10:52:00,
2013-03-21 06:57:00,21.3,14.3,29.70,SE,128,0.0,0.0,74,0.00,,,0.00,5,Wunderground v.1.15,2013-03-21 10:57:00,
2013-03-21 07:02:00,21.3,14.3,29.69,SE,128,0.0,0.0,74,0.00,,,0.00,7,Wunderground v.1.15,2013-03-21 11:02:00,
2013-03-21 07:07:00,21.1,14.1,29.69,SE,128,0.0,0.0,74,0.00,,,0.00,9,Wunderground v.1.15,2013-03-21 11:07:00,
2013-03-21 07:13:00,21.1,14.4,29.69,SE,128,0.0,0.0,75,0.00,,,0.00,11,Wunderground v.1.15,2013-03-21 11:13:00,
2013-03-21 07:19:00,21.1,14.4,29.70,SE,128,0.0,0.0,75,0.00,,,0.00,12,Wunderground v.1.15,2013-03-21 11:19:00,
2013-03-21 07:24:00,21.0,14.3,29.70,SE,128,0.0,0.0,75,0.00,,,0.00,14,Wunderground v.1.15,2013-03-21 11:24:00,
2013-03-21 07:31:00,21.0,14.3,29.70,SE,128,0.0,0.0,75,0.00,,,0.00,18,Wunderground v.1.15,2013-03-21 11:31:00,
2013-03-21 07:37:00,20.8,14.4,29.70,SE,128,0.0,1.0,76,0.00,,,0.00,23,Wunderground v.1.15,2013-03-21 11:37:00,
2013-03-21 07:42:00,20.8,14.1,29.70,SE,128,0.0,0.0,75,0.00,,,0.00,26,Wunderground v.1.15,2013-03-21 11:42:00,
2013-03-21 07:47:00,20.6,14.2,29.70,SE,128,0.0,1.0,76,0.00,,,0.00,30,Wunderground v.1.15,2013-03-21 11:47:00,
2013-03-21 07:53:00,21.0,14.6,29.70,ESE,115,0.0,0.0,76,0.00,,,0.00,35,Wunderground v.1.15,2013-03-21 11:53:00,
2013-03-21 07:59:00,21.1,14.7,29.70,ESE,115,0.0,0.0,76,0.00,,,0.00,35,Wunderground v.1.15,2013-03-21 11:59:00,
2013-03-21 08:04:00,21.4,15.0,29.70,ESE,115,0.0,0.0,76,0.00,,,0.00,44,Wunderground v.1.15,2013-03-21 12:04:00,
2013-03-21 08:09:00,21.8,15.4,29.70,ESE,115,0.0,0.0,76,0.00,,,0.00,51,Wunderground v.1.15,2013-03-21 12:09:00,
2013-03-21 08:16:00,22.2,15.5,29.71,ESE,115,0.0,0.0,75,0.00,,,0.00,123,Wunderground v.1.15,2013-03-21 12:16:00,
2013-03-21 08:22:00,23.2,16.1,29.71,ESE,115,0.0,0.0,74,0.00,,,0.00,209,Wunderground v.1.15,2013-03-21 12:22:00,
2013-03-21 08:28:00,24.2,16.8,29.71,ESE,115,0.0,0.0,73,0.00,,,0.00,230,Wunderground v.1.15,2013-03-21 12:28:00,
2013-03-21 08:33:00,25.0,16.9,29.70,ESE,115,0.0,1.0,71,0.00,,,0.00,306,Wunderground v.1.15,2013-03-21 12:33:00,
2013-03-21 08:38:00,25.7,16.9,29.70,South,191,0.0,1.0,69,0.00,,,0.00,287,Wunderground v.1.15,2013-03-21 12:38:00,
2013-03-21 08:44:00,26.1,16.6,29.70,East,92,1.0,1.0,67,0.00,,,0.00,292,Wunderground v.1.15,2013-03-21 12:44:00,
2013-03-21 08:49:00,26.7,16.9,29.71,East,92,0.0,2.0,66,0.00,,,0.00,309,Wunderground v.1.15,2013-03-21 12:49:00,
2013-03-21 08:56:00,27.3,17.1,29.71,East,92,0.0,0.0,65,0.00,,,0.00,211,Wunderground v.1.15,2013-03-21 12:56:00,
2013-03-21 09:02:00,27.5,16.9,29.71,ENE,67,0.0,2.0,64,0.00,,,0.00,309,Wunderground v.1.15,2013-03-21 13:02:00,
2013-03-21 09:07:00,27.5,16.9,29.71,ENE,66,0.0,2.0,64,0.00,,,0.00,260,Wunderground v.1.15,2013-03-21 13:07:00,
2013-03-21 09:13:00,27.5,16.5,29.71,NE,38,0.0,2.0,63,0.00,,,0.00,378,Wunderground v.1.15,2013-03-21 13:13:00,
2013-03-21 09:19:00,27.9,16.9,29.71,NE,38,0.0,2.0,63,0.00,,,0.00,315,Wunderground v.1.15,2013-03-21 13:19:00,
2013-03-21 09:24:00,28.2,16.5,29.71,NE,35,0.0,3.0,61,0.00,,,0.00,376,Wunderground v.1.15,2013-03-21 13:24:00,
2013-03-21 09:31:00,28.5,16.7,29.71,NE,50,1.0,1.0,61,0.00,,,0.00,478,Wunderground v.1.15,2013-03-21 13:31:00,
2013-03-21 09:36:00,28.4,16.7,29.71,North,2,1.0,3.0,61,0.00,,,0.00,371,Wunderground v.1.15,2013-03-21 13:36:00,
2013-03-21 09:42:00,28.4,17.0,29.71,ESE,122,2.0,3.0,62,0.00,,,0.00,367,Wunderground v.1.15,2013-03-21 13:42:00,
2013-03-21 09:47:00,28.8,16.6,29.71,NNE,27,1.0,3.0,60,0.00,,,0.00,327,Wunderground v.1.15,2013-03-21 13:47:00,
2013-03-21 09:52:00,28.8,16.3,29.71,ENE,70,1.0,3.0,59,0.00,,,0.01,311,Wunderground v.1.15,2013-03-21 13:52:00,
2013-03-21 09:58:00,28.4,15.9,29.71,North,0,1.0,4.0,59,0.00,,,0.01,441,Wunderground v.1.15,2013-03-21 13:58:00,
2013-03-21 10:03:00,28.5,16.4,29.71,NE,44,1.0,3.0,60,0.00,,,0.01,557,Wunderground v.1.15,2013-03-21 14:03:00,
2013-03-21 10:09:00,28.8,16.3,29.71,NE,53,1.0,3.0,59,0.00,,,0.01,573,Wunderground v.1.15,2013-03-21 14:09:00,
2013-03-21 10:16:00,29.4,16.4,29.71,NE,50,1.0,2.0,58,0.00,,,0.01,633,Wunderground v.1.15,2013-03-21 14:16:00,
2013-03-21 10:21:00,30.0,17.0,29.71,SE,126,1.0,1.0,58,0.00,,,0.01,647,Wunderground v.1.15,2013-03-21 14:21:00,
2013-03-21 10:26:00,30.6,17.2,29.71,North,357,1.0,1.0,57,0.00,,,0.01,710,Wunderground v.1.15,2013-03-21 14:26:00,
2013-03-21 10:32:00,30.9,17.0,29.71,NNE,30,1.0,1.0,56,0.00,,,0.01,693,Wunderground v.1.15,2013-03-21 14:32:00,
2013-03-21 10:37:00,31.5,17.2,29.71,NE,38,1.0,3.0,55,0.00,,,0.01,679,Wunderground v.1.15,2013-03-21 14:37:00,
2013-03-21 10:43:00,31.8,16.6,29.71,NE,34,1.0,2.0,53,0.00,,,0.01,703,Wunderground v.1.15,2013-03-21 14:43:00,
2013-03-21 10:49:00,32.1,16.4,29.71,NNE,22,1.0,3.0,52,0.00,,,0.01,705,Wunderground v.1.15,2013-03-21 14:49:00,
2013-03-21 10:56:00,32.4,17.2,29.71,NNE,18,1.0,1.0,53,0.00,,,0.01,722,Wunderground v.1.15,2013-03-21 14:56:00,
2013-03-21 11:02:00,32.4,16.3,29.70,ENE,72,1.0,6.0,51,0.00,,,0.01,752,Wunderground v.1.15,2013-03-21 15:02:00,
2013-03-21 11:07:00,32.8,18.4,29.70,NNE,13,1.0,6.0,55,0.00,,,0.01,754,Wunderground v.1.15,2013-03-21 15:07:00,
2013-03-21 11:13:00,33.1,16.9,29.70,ENE,60,1.0,4.0,51,0.00,,,0.01,686,Wunderground v.1.15,2013-03-21 15:13:00,
2013-03-21 11:19:00,33.2,17.5,29.69,ENE,70,1.0,4.0,52,0.00,,,0.01,780,Wunderground v.1.15,2013-03-21 15:19:00,
2013-03-21 11:26:00,33.7,17.5,29.69,NNE,32,1.0,3.0,51,0.00,,,0.02,826,Wunderground v.1.15,2013-03-21 15:26:00,
2013-03-21 11:31:00,33.2,16.5,29.69,NNE,26,1.0,1.0,50,0.00,,,0.02,802,Wunderground v.1.15,2013-03-21 15:31:00,
2013-03-21 11:36:00,33.7,16.5,29.69,NE,42,1.0,3.0,49,0.00,,,0.02,904,Wunderground v.1.15,2013-03-21 15:36:00,
2013-03-21 11:41:00,34.3,17.6,29.69,NE,39,1.0,2.0,50,0.00,,,0.03,1004,Wunderground v.1.15,2013-03-21 15:41:00,
2013-03-21 11:47:00,34.6,17.4,29.69,NE,35,1.0,3.0,49,0.14,,,0.04,246,Wunderground v.1.15,2013-03-21 15:47:00,
2013-03-21 11:52:00,34.1,16.4,29.69,NE,37,2.0,3.0,48,0.09,,,0.04,891,Wunderground v.1.15,2013-03-21 15:52:00,
2013-03-21 11:58:00,34.1,17.4,29.69,NE,37,1.0,3.0,50,0.05,,,0.04,933,Wunderground v.1.15,2013-03-21 15:58:00,
2013-03-21 12:04:00,34.3,16.1,29.68,ENE,60,1.0,5.0,47,0.00,,,0.04,243,Wunderground v.1.15,2013-03-21 16:04:00,
2013-03-21 12:09:00,34.4,16.2,29.68,ENE,60,1.0,5.0,47,0.00,,,0.04,895,Wunderground v.1.15,2013-03-21 16:09:00,
2013-03-21 12:14:00,34.6,15.9,29.68,NE,37,0.0,2.0,46,0.00,,,0.04,928,Wunderground v.1.15,2013-03-21 16:14:00,
2013-03-21 12:21:00,34.9,16.2,29.68,NE,41,1.0,1.0,46,0.00,,,0.04,1044,Wunderground v.1.15,2013-03-21 16:21:00,
2013-03-21 12:26:00,34.9,17.2,29.68,NE,37,1.0,1.0,48,0.00,,,0.04,468,Wunderground v.1.15,2013-03-21 16:26:00,
2013-03-21 12:31:00,35.2,15.4,29.67,NNW,329,0.0,0.0,44,0.00,,,0.04,925,Wunderground v.1.15,2013-03-21 16:31:00,
2013-03-21 12:36:00,35.5,16.7,29.67,ENE,67,1.0,1.0,46,0.00,,,0.04,768,Wunderground v.1.15,2013-03-21 16:36:00,
2013-03-21 12:41:00,35.8,16.0,29.67,ENE,67,1.0,2.0,44,0.00,,,0.04,977,Wunderground v.1.15,2013-03-21 16:41:00,
2013-03-21 12:47:00,35.9,14.5,29.67,East,81,1.0,5.0,41,0.00,,,0.04,202,Wunderground v.1.15,2013-03-21 16:47:00,
2013-03-21 12:52:00,34.6,14.9,29.67,East,81,1.0,1.0,44,0.00,,,0.04,652,Wunderground v.1.15,2013-03-21 16:52:00,
2013-03-21 12:57:00,33.5,14.9,29.67,ENE,75,1.0,2.0,46,0.00,,,0.04,281,Wunderground v.1.15,2013-03-21 16:57:00,
2013-03-21 13:03:00,33.7,16.5,29.66,ENE,75,0.0,0.0,49,0.00,,,0.04,979,Wunderground v.1.15,2013-03-21 17:03:00,
2013-03-21 13:09:00,34.6,15.9,29.66,ENE,75,0.0,1.0,46,0.00,,,0.04,1053,Wunderground v.1.15,2013-03-21 17:09:00,
2013-03-21 13:14:00,35.8,18.0,29.66,East,99,0.0,4.0,48,0.00,,,0.04,914,Wunderground v.1.15,2013-03-21 17:14:00,
2013-03-21 13:21:00,36.8,16.9,29.66,NE,52,1.0,1.0,44,0.00,,,0.04,833,Wunderground v.1.15,2013-03-21 17:21:00,
2013-03-21 13:26:00,36.3,15.4,29.66,ENE,57,1.0,3.0,42,0.00,,,0.04,1007,Wunderground v.1.15,2013-03-21 17:26:00,
2013-03-21 13:31:00,35.9,16.6,29.65,NE,51,1.0,1.0,45,0.00,,,0.04,914,Wunderground v.1.15,2013-03-21 17:31:00,
2013-03-21 13:36:00,36.9,17.5,29.65,ENE,73,1.0,2.0,45,0.00,,,0.04,937,Wunderground v.1.15,2013-03-21 17:36:00,
2013-03-21 13:42:00,37.6,17.1,29.65,ENE,73,1.0,1.0,43,0.00,,,0.04,853,Wunderground v.1.15,2013-03-21 17:42:00,
2013-03-21 13:47:00,37.6,17.1,29.64,ENE,59,1.0,3.0,43,0.00,,,0.04,849,Wunderground v.1.15,2013-03-21 17:47:00,
2013-03-21 13:53:00,36.9,14.8,29.64,North,3,1.0,2.0,40,0.00,,,0.04,863,Wunderground v.1.15,2013-03-21 17:53:00,
2013-03-21 13:58:00,35.9,13.3,29.64,North,0,1.0,3.0,39,0.00,,,0.04,877,Wunderground v.1.15,2013-03-21 17:58:00,
2013-03-21 14:04:00,36.6,16.7,29.64,East,97,1.0,5.0,44,0.00,,,0.04,893,Wunderground v.1.15,2013-03-21 18:04:00,
2013-03-21 14:09:00,36.9,15.9,29.64,NNE,31,1.0,5.0,42,0.00,,,0.04,932,Wunderground v.1.15,2013-03-21 18:09:00,
2013-03-21 14:16:00,37.6,18.2,29.63,ENE,58,1.0,1.0,45,0.00,,,0.04,879,Wunderground v.1.15,2013-03-21 18:16:00,
2013-03-21 14:21:00,37.9,16.8,29.63,ENE,58,1.0,1.0,42,0.00,,,0.04,846,Wunderground v.1.15,2013-03-21 18:21:00,
2013-03-21 14:26:00,38.2,14.8,29.63,NE,51,0.0,2.0,38,0.00,,,0.04,928,Wunderground v.1.15,2013-03-21 18:26:00,
2013-03-21 14:31:00,36.9,15.4,29.63,ENE,57,0.0,3.0,41,0.00,,,0.04,258,Wunderground v.1.15,2013-03-21 18:31:00,
2013-03-21 14:37:00,35.5,15.7,29.63,NE,56,1.0,3.0,44,0.00,,,0.04,281,Wunderground v.1.15,2013-03-21 18:37:00,
2013-03-21 14:42:00,34.7,15.0,29.63,NE,56,0.0,1.0,44,0.00,,,0.04,374,Wunderground v.1.15,2013-03-21 18:42:00,
2013-03-21 14:48:00,34.4,15.2,29.63,ENE,57,0.0,2.0,45,0.00,,,0.04,199,Wunderground v.1.15,2013-03-21 18:48:00,
2013-03-21 14:53:00,34.3,15.6,29.63,NE,55,1.0,2.0,46,0.00,,,0.04,369,Wunderground v.1.15,2013-03-21 18:53:00,
2013-03-21 14:58:00,35.0,15.8,29.63,East,96,1.0,3.0,45,0.00,,,0.04,791,Wunderground v.1.15,2013-03-21 18:58:00,
2013-03-21 15:04:00,36.2,15.8,29.62,East,93,1.0,1.0,43,0.00,,,0.04,779,Wunderground v.1.15,2013-03-21 19:04:00,
2013-03-21 15:09:00,35.9,15.0,29.62,NNE,15,1.0,2.0,42,0.00,,,0.04,761,Wunderground v.1.15,2013-03-21 19:09:00,
2013-03-21 15:16:00,36.9,17.0,29.61,NE,50,1.0,3.0,44,0.00,,,0.04,747,Wunderground v.1.15,2013-03-21 19:16:00,
2013-03-21 15:21:00,37.6,14.2,29.61,NE,53,2.0,2.0,38,0.00,,,0.04,599,Wunderground v.1.15,2013-03-21 19:21:00,
2013-03-21 15:26:00,37.2,12.7,29.61,ENE,58,2.0,2.0,36,0.00,,,0.04,403,Wunderground v.1.15,2013-03-21 19:26:00,
2013-03-21 15:32:00,37.9,15.7,29.61,ENE,59,0.0,1.0,40,0.00,,,0.04,443,Wunderground v.1.15,2013-03-21 19:32:00,
2013-03-21 15:37:00,37.5,14.8,29.61,NE,52,1.0,3.0,39,0.00,,,0.04,469,Wunderground v.1.15,2013-03-21 19:37:00,
2013-03-21 15:43:00,37.2,16.2,29.61,ENE,73,1.0,2.0,42,0.00,,,0.04,380,Wunderground v.1.15,2013-03-21 19:43:00,
2013-03-21 15:49:00,36.9,15.4,29.61,NE,52,1.0,2.0,41,0.00,,,0.04,323,Wunderground v.1.15,2013-03-21 19:49:00,
2013-03-21 15:56:00,36.5,15.6,29.61,NE,52,0.0,4.0,42,0.00,,,0.04,359,Wunderground v.1.15,2013-03-21 19:56:00,
2013-03-21 16:01:00,36.3,16.4,29.61,ENE,62,0.0,0.0,44,0.00,,,0.04,385,Wunderground v.1.15,2013-03-21 20:01:00,
2013-03-21 16:07:00,36.3,15.9,29.61,ENE,62,0.0,0.0,43,0.00,,,0.04,299,Wunderground v.1.15,2013-03-21 20:07:00,
2013-03-21 16:12:00,36.0,14.5,29.61,ENE,62,0.0,0.0,41,0.00,,,0.04,279,Wunderground v.1.15,2013-03-21 20:12:00,
2013-03-21 16:17:00,35.3,13.3,29.61,ENE,62,0.0,1.0,40,0.00,,,0.04,348,Wunderground v.1.15,2013-03-21 20:17:00,
2013-03-21 16:23:00,35.2,14.4,29.61,NE,47,0.0,0.0,42,0.00,,,0.04,323,Wunderground v.1.15,2013-03-21 20:23:00,
2013-03-21 16:28:00,35.0,13.6,29.61,NE,47,0.0,0.0,41,0.00,,,0.04,241,Wunderground v.1.15,2013-03-21 20:28:00,
2013-03-21 16:34:00,35.2,13.8,29.60,NE,47,0.0,0.0,41,0.00,,,0.04,304,Wunderground v.1.15,2013-03-21 20:34:00,
2013-03-21 16:41:00,35.0,15.3,29.60,NE,47,0.0,0.0,44,0.00,,,0.04,339,Wunderground v.1.15,2013-03-21 20:41:00,
2013-03-21 16:46:00,34.9,13.5,29.60,NE,47,0.0,1.0,41,0.00,,,0.04,218,Wunderground v.1.15,2013-03-21 20:46:00,
2013-03-21 16:53:00,35.0,15.3,29.60,NE,47,0.0,1.0,44,0.00,,,0.04,146,Wunderground v.1.15,2013-03-21 20:53:00,
2013-03-21 16:58:00,34.9,15.7,29.60,NE,47,0.0,1.0,45,0.00,,,0.04,141,Wunderground v.1.15,2013-03-21 20:58:00,
2013-03-21 17:04:00,35.0,15.3,29.60,NE,47,0.0,0.0,44,0.00,,,0.04,156,Wunderground v.1.15,2013-03-21 21:04:00,
2013-03-21 17:09:00,35.2,15.4,29.60,NE,47,0.0,0.0,44,0.00,,,0.04,156,Wunderground v.1.15,2013-03-21 21:09:00,
2013-03-21 17:16:00,35.2,14.4,29.60,NE,47,0.0,0.0,42,0.00,,,0.04,162,Wunderground v.1.15,2013-03-21 21:16:00,
2013-03-21 17:21:00,34.9,11.8,29.60,NE,47,0.0,0.0,38,0.00,,,0.04,146,Wunderground v.1.15,2013-03-21 21:21:00,
2013-03-21 17:26:00,35.0,13.6,29.60,NE,47,0.0,0.0,41,0.00,,,0.04,128,Wunderground v.1.15,2013-03-21 21:26:00,
2013-03-21 17:32:00,35.2,16.0,29.61,NE,47,0.0,0.0,45,0.00,,,0.04,120,Wunderground v.1.15,2013-03-21 21:32:00,
2013-03-21 17:37:00,34.9,13.0,29.61,NE,47,0.0,0.0,40,0.00,,,0.04,121,Wunderground v.1.15,2013-03-21 21:37:00,
2013-03-21 17:43:00,34.7,13.4,29.61,NE,47,0.0,0.0,41,0.00,,,0.04,105,Wunderground v.1.15,2013-03-21 21:43:00,
2013-03-21 17:49:00,34.6,14.4,29.60,NE,47,0.0,0.0,43,0.00,,,0.04,81,Wunderground v.1.15,2013-03-21 21:49:00,
2013-03-21 17:56:00,34.3,14.6,29.60,NE,47,0.0,0.0,44,0.00,,,0.04,69,Wunderground v.1.15,2013-03-21 21:56:00,
2013-03-21 18:01:00,34.0,14.3,29.61,NE,47,0.0,0.0,44,0.00,,,0.04,63,Wunderground v.1.15,2013-03-21 22:01:00,
2013-03-21 18:06:00,33.8,15.2,29.61,NE,47,0.0,0.0,46,0.00,,,0.04,56,Wunderground v.1.15,2013-03-21 22:06:00,
2013-03-21 18:12:00,33.8,15.2,29.61,NE,47,0.0,0.0,46,0.00,,,0.04,49,Wunderground v.1.15,2013-03-21 22:12:00,
2013-03-21 18:17:00,33.7,13.5,29.61,NE,47,0.0,0.0,43,0.00,,,0.04,42,Wunderground v.1.15,2013-03-21 22:17:00,
2013-03-21 18:23:00,33.7,14.6,29.61,NE,47,0.0,0.0,45,0.00,,,0.04,40,Wunderground v.1.15,2013-03-21 22:23:00,
2013-03-21 18:29:00,33.7,17.0,29.61,NE,47,0.0,0.0,50,0.00,,,0.04,32,Wunderground v.1.15,2013-03-21 22:29:00,
2013-03-21 18:36:00,33.7,16.5,29.61,NE,47,0.0,0.0,49,0.00,,,0.04,25,Wunderground v.1.15,2013-03-21 22:36:00,
2013-03-21 18:41:00,33.5,16.8,29.61,NE,47,0.0,0.0,50,0.00,,,0.04,18,Wunderground v.1.15,2013-03-21 22:41:00,
2013-03-21 18:46:00,33.4,16.7,29.61,NE,47,0.0,0.0,50,0.00,,,0.04,12,Wunderground v.1.15,2013-03-21 22:46:00,
2013-03-21 18:52:00,33.2,17.0,29.61,NE,47,0.0,0.0,51,0.00,,,0.04,9,Wunderground v.1.15,2013-03-21 22:52:00,
2013-03-21 18:57:00,32.9,16.3,29.61,NE,47,0.0,0.0,50,0.00,,,0.04,7,Wunderground v.1.15,2013-03-21 22:57:00,
2013-03-21 19:02:00,32.8,16.2,29.62,NE,47,0.0,0.0,50,0.00,,,0.04,5,Wunderground v.1.15,2013-03-21 23:02:00,
2013-03-21 19:07:00,32.7,17.0,29.62,NE,47,0.0,0.0,52,0.00,,,0.04,0,Wunderground v.1.15,2013-03-21 23:07:00,
2013-03-21 19:13:00,32.4,17.6,29.62,NE,47,0.0,0.0,54,0.00,,,0.04,0,Wunderground v.1.15,2013-03-21 23:13:00,
2013-03-21 19:18:00,32.2,17.8,29.62,NE,47,0.0,0.0,55,0.00,,,0.04,0,Wunderground v.1.15,2013-03-21 23:18:00,
2013-03-21 19:24:00,31.9,17.1,29.62,NE,47,0.0,0.0,54,0.00,,,0.04,0,Wunderground v.1.15,2013-03-21 23:24:00,
2013-03-21 19:31:00,31.5,16.7,29.63,NE,47,0.0,0.0,54,0.00,,,0.04,0,Wunderground v.1.15,2013-03-21 23:31:00,
2013-03-21 19:36:00,31.2,16.5,29.63,NE,47,0.0,0.0,54,0.00,,,0.04,0,Wunderground v.1.15,2013-03-21 23:36:00,
2013-03-21 19:42:00,30.9,17.0,29.63,NE,47,0.0,0.0,56,0.00,,,0.04,0,Wunderground v.1.15,2013-03-21 23:42:00,
2013-03-21 19:47:00,30.7,17.3,29.63,NE,47,0.0,0.0,57,0.00,,,0.04,0,Wunderground v.1.15,2013-03-21 23:47:00,
2013-03-21 19:53:00,30.4,17.4,29.63,NE,47,0.0,0.0,58,0.00,,,0.04,0,Wunderground v.1.15,2013-03-21 23:53:00,
2013-03-21 19:59:00,30.3,17.7,29.63,NE,47,0.0,0.0,59,0.00,,,0.04,0,Wunderground v.1.15,2013-03-21 23:59:00,
2013-03-21 20:04:00,30.3,17.7,29.63,NE,47,0.0,0.0,59,0.00,,,0.04,0,Wunderground v.1.15,2013-03-22 00:04:00,
2013-03-21 20:09:00,30.1,17.9,29.63,NE,47,0.0,0.0,60,0.00,,,0.04,0,Wunderground v.1.15,2013-03-22 00:09:00,
2013-03-21 20:14:00,30.1,18.6,29.63,NE,47,0.0,0.0,62,0.00,,,0.04,0,Wunderground v.1.15,2013-03-22 00:14:00,
2013-03-21 20:19:00,30.1,19.0,29.64,NE,47,0.0,0.0,63,0.00,,,0.04,0,Wunderground v.1.15,2013-03-22 00:19:00,
2013-03-21 20:26:00,30.1,19.0,29.64,NE,47,0.0,1.0,63,0.00,,,0.04,0,Wunderground v.1.15,2013-03-22 00:26:00,
2013-03-21 20:31:00,30.1,19.0,29.64,NE,47,0.0,0.0,63,0.00,,,0.04,0,Wunderground v.1.15,2013-03-22 00:31:00,
2013-03-21 20:36:00,30.1,19.0,29.64,NE,47,0.0,0.0,63,0.00,,,0.04,0,Wunderground v.1.15,2013-03-22 00:36:00,
2013-03-21 20:41:00,30.0,19.3,29.64,NE,47,0.0,0.0,64,0.00,,,0.04,0,Wunderground v.1.15,2013-03-22 00:41:00,
2013-03-21 20:47:00,29.8,19.1,29.64,NE,47,0.0,0.0,64,0.00,,,0.04,0,Wunderground v.1.15,2013-03-22 00:47:00,
2013-03-21 20:52:00,29.8,19.5,29.64,NE,47,0.0,0.0,65,0.00,,,0.04,0,Wunderground v.1.15,2013-03-22 00:52:00,
2013-03-21 20:58:00,29.8,19.5,29.64,NE,47,0.0,0.0,65,0.00,,,0.04,0,Wunderground v.1.15,2013-03-22 00:58:00,
2013-03-21 21:03:00,29.8,19.8,29.64,NE,47,0.0,0.0,66,0.00,,,0.04,0,Wunderground v.1.15,2013-03-22 01:03:00,
2013-03-21 21:09:00,29.7,20.1,29.64,NE,47,0.0,0.0,67,0.00,,,0.04,0,Wunderground v.1.15,2013-03-22 01:09:00,
2013-03-21 21:14:00,29.5,19.9,29.64,NE,47,0.0,0.0,67,0.00,,,0.04,0,Wunderground v.1.15,2013-03-22 01:14:00,
2013-03-21 21:21:00,29.4,19.8,29.64,NE,47,0.0,0.0,67,0.00,,,0.04,0,Wunderground v.1.15,2013-03-22 01:21:00,
2013-03-21 21:26:00,29.1,19.8,29.64,NE,47,0.0,0.0,68,0.00,,,0.04,0,Wunderground v.1.15,2013-03-22 01:26:00,
2013-03-21 21:31:00,29.1,20.2,29.65,NE,47,0.0,0.0,69,0.00,,,0.04,0,Wunderground v.1.15,2013-03-22 01:31:00,
2013-03-21 21:36:00,28.8,19.9,29.65,NE,47,0.0,0.0,69,0.00,,,0.04,0,Wunderground v.1.15,2013-03-22 01:36:00,
2013-03-21 21:42:00,28.5,19.6,29.65,NE,47,0.0,0.0,69,0.00,,,0.04,0,Wunderground v.1.15,2013-03-22 01:42:00,
2013-03-21 21:47:00,28.5,20.0,29.65,NE,47,0.0,0.0,70,0.00,,,0.04,0,Wunderground v.1.15,2013-03-22 01:47:00,
2013-03-21 21:53:00,28.4,19.9,29.65,NE,47,0.0,0.0,70,0.00,,,0.04,0,Wunderground v.1.15,2013-03-22 01:53:00,
2013-03-21 21:58:00,28.4,19.9,29.65,NE,47,0.0,0.0,70,0.00,,,0.04,0,Wunderground v.1.15,2013-03-22 01:58:00,
2013-03-21 22:04:00,28.4,19.9,29.65,NE,47,0.0,0.0,70,0.00,,,0.04,0,Wunderground v.1.15,2013-03-22 02:04:00,
2013-03-21 22:11:00,28.4,19.9,29.65,NE,47,0.0,0.0,70,0.00,,,0.04,0,Wunderground v.1.15,2013-03-22 02:11:00,
2013-03-21 22:16:00,28.4,20.2,29.64,NE,47,0.0,0.0,71,0.00,,,0.04,0,Wunderground v.1.15,2013-03-22 02:16:00,
2013-03-21 22:21:00,28.5,20.3,29.64,NE,47,0.0,0.0,71,0.00,,,0.04,0,Wunderground v.1.15,2013-03-22 02:21:00,
2013-03-21 22:27:00,28.5,20.6,29.64,NE,47,0.0,0.0,72,0.00,,,0.04,0,Wunderground v.1.15,2013-03-22 02:27:00,
2013-03-21 22:32:00,28.5,20.6,29.64,NE,47,0.0,0.0,72,0.00,,,0.04,0,Wunderground v.1.15,2013-03-22 02:32:00,
2013-03-21 22:37:00,28.5,20.6,29.64,NE,47,0.0,0.0,72,0.00,,,0.04,0,Wunderground v.1.15,2013-03-22 02:37:00,
2013-03-21 22:43:00,28.5,20.3,29.64,NE,47,0.0,0.0,71,0.00,,,0.04,0,Wunderground v.1.15,2013-03-22 02:43:00,
2013-03-21 22:49:00,28.5,20.6,29.64,NE,47,0.0,0.0,72,0.00,,,0.04,0,Wunderground v.1.15,2013-03-22 02:49:00,
2013-03-21 22:54:00,28.5,20.6,29.64,NE,47,0.0,0.0,72,0.00,,,0.04,0,Wunderground v.1.15,2013-03-22 02:54:00,
2013-03-21 23:01:00,28.4,20.5,29.64,NE,47,0.0,0.0,72,0.00,,,0.04,0,Wunderground v.1.15,2013-03-22 03:01:00,
2013-03-21 23:06:00,28.2,20.3,29.64,NE,47,0.0,0.0,72,0.00,,,0.04,0,Wunderground v.1.15,2013-03-22 03:06:00,
2013-03-21 23:11:00,28.1,19.9,29.64,NE,47,0.0,0.0,71,0.00,,,0.04,0,Wunderground v.1.15,2013-03-22 03:11:00,
2013-03-21 23:17:00,27.8,19.6,29.64,NE,47,0.0,0.0,71,0.00,,,0.04,0,Wunderground v.1.15,2013-03-22 03:17:00,
2013-03-21 23:22:00,27.6,19.8,29.64,NE,47,0.0,0.0,72,0.00,,,0.04,0,Wunderground v.1.15,2013-03-22 03:22:00,
2013-03-21 23:27:00,27.3,19.8,29.64,NE,47,0.0,0.0,73,0.00,,,0.04,0,Wunderground v.1.15,2013-03-22 03:27:00,
2013-03-21 23:33:00,27.2,19.7,29.64,NE,47,0.0,0.0,73,0.00,,,0.04,0,Wunderground v.1.15,2013-03-22 03:33:00,
2013-03-21 23:39:00,27.0,19.5,29.64,NE,47,0.0,0.0,73,0.00,,,0.04,0,Wunderground v.1.15,2013-03-22 03:39:00,
2013-03-21 23:44:00,26.7,19.5,29.64,NE,47,0.0,0.0,74,0.00,,,0.04,0,Wunderground v.1.15,2013-03-22 03:44:00,
2013-03-21 23:51:00,26.6,19.4,29.64,NE,47,0.0,0.0,74,0.00,,,0.04,0,Wunderground v.1.15,2013-03-22 03:51:00,
2013-03-21 23:56:00,26.3,19.5,29.64,NE,47,0.0,0.0,75,0.00,,,0.04,0,Wunderground v.1.15,2013-03-22 03:56:00,